"2010-02-08 00:00:00",1662039,7.248,102,3.251,0.595,0.919,98.38575,-4.812,-3.426,94.2,0,109.3,13.72,-4.08,64.0
"2010-02-08 00:00:30",1662040,7.083,101.6,3.596,0.739,0.954,98.38686,-4.809,-3.412,94.2,0,109.3,13.72,-4.07,63.6
"2010-02-08 00:01:00",1662041,7.132,98.9,2.66,0.702,0.932,98.38659,-4.81,-3.416,94.2,0,109.3,13.72,-4.08,60.9
"2010-02-08 00:01:30",1662042,7.049,96.9,3.844,0.561,0.883,98.38659,-4.81,-3.448,94.2,0,109.3,13.72,-4.08,58.9
"2010-02-08 00:02:00",1662043,6.7,95.1,5.157,0.848,0.422,98.38659,-4.81,-3.505,94.1,0,109.3,13.72,-4.08,57.1
"2010-02-08 00:02:30",1662044,5.988,93.1,6.212,1.109,-1.026,98.38743,-4.808,-3.513,94.1,0,109.3,13.72,-4.07,55.1
"2010-02-08 00:03:00",1662045,6.37,93.5,6.484,1.117,-0.941,98.38937,-4.803,-3.603,94,0,109.3,13.71,-4.07,55.5
"2010-02-08 00:03:30",1662046,6.601,93.8,5.554,1.021,0.114,98.38937,-4.803,-3.547,94,0,109.3,13.72,-4.07,55.8
"2010-02-08 00:04:00",1662047,6.832,95.9,4.163,0.956,1.464,98.38597,-4.812,-3.496,94.1,0,109.3,13.72,-4.08,57.9
"2010-02-08 00:04:30",1662048,7.197,97.2,4.656,0.879,1.529,98.37265,-4.846,-3.495,94.1,0,109.3,13.72,-4.11,59.2
"2010-02-08 00:05:00",1662049,7.381,98.5,3.84,0.659,1.736,98.37119,-4.849,-3.482,94.1,0,109.3,13.72,-4.11,60.5
"2010-02-08 00:05:30",1662050,7.383,99.4,3.403,0.628,1.659,98.36607,-4.862,-3.479,94.1,0,109.3,13.72,-4.13,61.4
"2010-02-08 00:06:00",1662051,7.17,100.8,3.872,0.668,1.463,98.3604,-4.877,-3.485,94.1,0,109.3,13.72,-4.14,62.8
"2010-02-08 00:06:30",1662052,7.26,101.7,3.91,0.667,1.325,98.35982,-4.878,-3.499,94,0,109.3,13.71,-4.14,63.7
"2010-02-08 00:07:00",1662053,7.239,101,3.523,0.731,1.383,98.35814,-4.883,-3.516,94,0,109.3,13.71,-4.15,63.0
"2010-02-08 00:07:30",1662054,7.262,102,2.956,0.647,1.135,98.35925,-4.88,-3.53,94,0,109.3,13.72,-4.14,64.0
"2010-02-08 00:08:00",1662055,7.17,101.7,2.967,0.784,0.946,98.35953,-4.879,-3.524,94,0,109.3,13.72,-4.14,63.7
"2010-02-08 00:08:30",1662056,7.209,100.5,2.837,0.708,0.978,98.35925,-4.88,-3.538,93.9,0,109.3,13.73,-4.14,62.5
"2010-02-08 00:09:00",1662057,7.028,100,4.394,0.732,0.62,98.35814,-4.883,-3.6,93.9,0,109.3,13.73,-4.15,62.0
"2010-02-08 00:09:30",1662058,7.125,100.2,5.057,0.533,0.807,98.35896,-4.881,-3.551,93.9,0,109.3,13.73,-4.15,62.2
"2010-02-08 00:10:00",1662059,6.693,99.4,5.109,0.982,0.148,98.35414,-4.893,-3.64,93.8,0,109.3,13.73,-4.16,61.4
"2010-02-08 00:10:30",1662060,6.585,97.8,5.004,1.081,-0.488,98.34648,-4.912,-3.687,93.7,0,109.3,13.73,-4.18,59.8
"2010-02-08 00:11:00",1662061,6.519,94.6,6.088,1.126,-0.441,98.33714,-4.936,-3.716,93.7,0,109.3,13.73,-4.20,56.6
"2010-02-08 00:11:30",1662062,6.989,101.7,5.168,0.567,1.8,98.3329,-4.947,-3.553,93.8,0,109.3,13.73,-4.21,63.7
"2010-02-08 00:12:00",1662063,7.067,101.9,3.454,0.779,1.731,98.3343,-4.943,-3.563,93.7,0,109.3,13.73,-4.21,63.9
"2010-02-08 00:12:30",1662064,6.656,104.4,2.587,0.882,1.533,98.33202,-4.949,-3.588,93.7,0,109.3,13.73,-4.21,66.4
"2010-02-08 00:13:00",1662065,6.325,106,3.294,0.645,1.541,98.33147,-4.951,-3.594,93.7,0,109.3,13.73,-4.22,68.0
"2010-02-08 00:13:30",1662066,6.692,102.5,3.795,0.493,1.114,98.33426,-4.943,-3.611,93.6,0,109.2,13.73,-4.21,64.5
"2010-02-08 00:14:00",1662067,6.02,98.6,5.57,1.064,-0.012,98.33203,-4.949,-3.632,93.6,0,109.3,13.73,-4.21,60.6
"2010-02-08 00:14:30",1662068,6.298,98.3,6.333,1.001,0.189,98.3312,-4.951,-3.657,93.5,0,109.3,13.73,-4.22,60.3
"2010-02-08 00:15:00",1662069,6.572,99.3,5.271,0.855,0.896,98.33231,-4.948,-3.657,93.5,0,109.3,13.73,-4.21,61.3
"2010-02-08 00:15:30",1662070,6.779,101.5,4.256,0.851,1.131,98.33231,-4.948,-3.605,93.6,0,109.3,13.73,-4.21,63.5
"2010-02-08 00:16:00",1662071,6.7,103.5,4.694,0.89,1.463,98.33061,-4.953,-3.605,93.5,0,109.3,13.73,-4.22,65.5
"2010-02-08 00:16:30",1662072,6.783,103.8,5.056,0.834,1.076,98.3295,-4.956,-3.6,93.5,0,109.3,13.73,-4.22,65.8
"2010-02-08 00:17:00",1662073,6.763,106.3,3.614,0.704,1.531,98.33062,-4.953,-3.599,93.5,0,109.2,13.73,-4.22,68.3
"2010-02-08 00:17:30",1662074,6.706,106.8,2.756,0.722,1.477,98.32977,-4.955,-3.606,93.4,0,109.3,13.73,-4.22,68.8
"2010-02-08 00:18:00",1662075,6.493,102.6,5.592,0.982,0.577,98.32836,-4.958,-3.667,93.3,0,109.3,13.73,-4.22,64.6
"2010-02-08 00:18:30",1662076,6.317,104.8,4.719,0.894,1.237,98.32835,-4.958,-3.612,93.3,0,109.3,13.73,-4.22,66.8
"2010-02-08 00:19:00",1662077,6.613,106.1,2.64,0.793,1.697,98.32836,-4.958,-3.58,93.3,0,109.3,13.73,-4.22,68.1
"2010-02-08 00:19:30",1662078,6.751,107.9,4.342,0.514,1.7,98.32893,-4.957,-3.587,93.3,0,109.3,13.73,-4.22,69.9
"2010-02-08 00:20:00",1662079,6.807,110.9,2.984,0.616,1.281,98.32836,-4.958,-3.594,93.3,0,109.3,13.72,-4.22,72.9
"2010-02-08 00:20:30",1662080,6.881,110.3,3.525,0.706,1.45,98.32664,-4.963,-3.573,93.2,0,109.3,13.72,-4.23,72.3
"2010-02-08 00:21:00",1662081,6.915,109.5,3.145,0.657,1.525,98.32664,-4.963,-3.611,93.2,0,109.3,13.72,-4.23,71.5
"2010-02-08 00:21:30",1662082,6.713,109.2,3.841,0.648,1.104,98.32523,-4.966,-3.593,93.1,0,109.3,13.72,-4.23,71.2
"2010-02-08 00:22:00",1662083,7.09,109.8,3.323,0.581,1.323,98.32439,-4.968,-3.599,93.1,0,109.3,13.72,-4.23,71.8
"2010-02-08 00:22:30",1662084,7.045,107.9,3.063,0.512,1.37,98.32496,-4.967,-3.63,93,0,109.3,13.72,-4.23,69.9
"2010-02-08 00:23:00",1662085,7.088,108.9,4.399,0.544,1.026,98.32552,-4.966,-3.606,93,0,109.3,13.72,-4.23,70.9
"2010-02-08 00:23:30",1662086,6.299,107.5,4.879,1.025,0.111,98.32607,-4.964,-3.674,92.8,0,109.3,13.72,-4.23,69.5
"2010-02-08 00:24:00",1662087,6.458,110.9,3.285,0.725,0.554,98.32552,-4.966,-3.679,92.8,0,109.3,13.73,-4.23,72.9
"2010-02-08 00:24:30",1662088,5.922,106,5.947,1.179,-0.523,98.32663,-4.963,-3.73,92.7,0,109.3,13.73,-4.23,68.0
"2010-02-08 00:25:00",1662089,6.703,107.6,5.009,0.989,1.388,98.32468,-4.968,-3.593,92.7,0,109.3,13.73,-4.23,69.6
"2010-02-08 00:25:30",1662090,7.384,107.9,2.648,0.625,2.213,98.32607,-4.964,-3.62,92.7,0,109.3,13.73,-4.23,69.9
"2010-02-08 00:26:00",1662091,7.571,106.2,2.5,0.519,2.321,98.32552,-4.966,-3.62,92.6,0,109.3,13.73,-4.23,68.2
"2010-02-08 00:26:30",1662092,7.535,105.3,3.453,0.695,2.177,98.32579,-4.965,-3.607,92.6,0,109.3,13.73,-4.23,67.3
"2010-02-08 00:27:00",1662093,7.609,103.6,4.197,0.659,1.923,98.32468,-4.968,-3.622,92.5,0,109.3,13.73,-4.23,65.6
"2010-02-08 00:27:30",1662094,7.341,106.6,2.869,0.705,1.633,98.32496,-4.967,-3.627,92.5,0,109.3,13.73,-4.23,68.6
"2010-02-08 00:28:00",1662095,7.225,106.2,3.334,0.721,1.833,98.32523,-4.966,-3.599,92.5,0,109.3,13.73,-4.23,68.2
"2010-02-08 00:28:30",1662096,7.257,107.5,3.799,0.478,1.839,98.32523,-4.966,-3.623,92.5,0,109.3,13.73,-4.23,69.5
"2010-02-08 00:29:00",1662097,7.255,107.1,3.613,0.629,1.61,98.32751,-4.961,-3.61,92.5,0,109.2,13.73,-4.23,69.1
"2010-02-08 00:29:30",1662098,7.27,109.4,3.97,0.643,1.496,98.33092,-4.952,-3.583,92.5,0,109.3,13.73,-4.22,71.4
"2010-02-08 00:30:00",1662099,7.186,108.5,3.426,0.634,1.392,98.33317,-4.946,-3.595,92.4,0,109.3,13.73,-4.21,70.5
"2010-02-08 00:30:30",1662100,7.149,106.5,3.761,0.668,1.369,98.33373,-4.945,-3.596,92.4,0,109.3,13.73,-4.21,68.5
"2010-02-08 00:31:00",1662101,7.183,106.6,2.981,0.74,1.425,98.33401,-4.944,-3.611,92.3,0,109.3,13.73,-4.21,68.6
"2010-02-08 00:31:30",1662102,7.221,107,1.431,0.702,1.276,98.338,-4.934,-3.602,92.3,0,109.3,13.73,-4.20,69.0
"2010-02-08 00:32:00",1662103,7.206,107.1,1.78,0.737,1.253,98.33969,-4.93,-3.577,92.3,0,109.3,13.73,-4.19,69.1
"2010-02-08 00:32:30",1662104,7.198,107.6,2.701,0.719,1.277,98.3414,-4.925,-3.595,92.3,0,109.3,13.73,-4.19,69.6
"2010-02-08 00:33:00",1662105,7.285,107.4,3.125,0.626,1.501,98.3476,-4.909,-3.591,92.3,0,109.3,13.73,-4.17,69.4
"2010-02-08 00:33:30",1662106,7.222,108.3,2.014,0.705,1.347,98.35526,-4.89,-3.589,92.2,0,109.3,13.73,-4.16,70.3
"2010-02-08 00:34:00",1662107,7.198,108.6,2.717,0.79,1.329,98.35754,-4.884,-3.569,92.2,0,109.3,13.73,-4.15,70.6
"2010-02-08 00:34:30",1662108,7.171,108.3,2.836,0.786,1.409,98.36064,-4.876,-3.592,92.2,0,109.3,13.73,-4.14,70.3
"2010-02-08 00:35:00",1662109,7.201,108,2.503,0.785,1.521,98.35925,-4.88,-3.575,92.2,0,109.3,13.73,-4.14,70.0
"2010-02-08 00:35:30",1662110,7.23,108.4,3.023,0.684,1.414,98.36065,-4.876,-3.571,92.2,0,109.3,13.73,-4.14,70.4
"2010-02-08 00:36:00",1662111,7.098,109.2,2.844,0.776,1.421,98.36177,-4.873,-3.556,92.2,0,109.3,13.73,-4.14,71.2
"2010-02-08 00:36:30",1662112,7.109,109.4,2.676,0.73,1.362,98.35953,-4.879,-3.575,92.1,0,109.3,13.72,-4.14,71.4
"2010-02-08 00:37:00",1662113,7.076,109.7,2.767,0.72,1.521,98.36121,-4.875,-3.575,92.1,0,109.3,13.72,-4.14,71.7
"2010-02-08 00:37:30",1662114,7.204,111.1,2.504,0.58,1.308,98.36121,-4.875,-3.548,92.1,0,109.2,13.72,-4.14,73.1
"2010-02-08 00:38:00",1662115,7.173,111.3,2.298,0.712,1.188,98.36037,-4.877,-3.544,92.1,0,109.3,13.72,-4.14,73.3
"2010-02-08 00:38:30",1662116,7.292,111.4,3.214,0.636,1.305,98.36037,-4.877,-3.558,92,0,109.3,13.72,-4.14,73.4
"2010-02-08 00:39:00",1662117,7.23,112.2,2.563,0.795,1.471,98.36065,-4.876,-3.54,92,0,109.3,13.72,-4.14,74.2
"2010-02-08 00:39:30",1662118,7.29,113.7,2.463,0.692,1.309,98.35925,-4.88,-3.553,92,0,109.3,13.72,-4.14,75.7
"2010-02-08 00:40:00",1662119,7.162,114.6,2.007,0.793,1.158,98.36037,-4.877,-3.533,92,0,109.3,13.73,-4.14,76.6
"2010-02-08 00:40:30",1662120,7.164,115.1,2.523,0.711,1.105,98.35954,-4.879,-3.552,92,0,109.3,13.73,-4.14,77.1
"2010-02-08 00:41:00",1662121,7.159,115.4,2.475,0.723,1.245,98.36149,-4.874,-3.533,91.9,0,109.3,13.73,-4.14,77.4
"2010-02-08 00:41:30",1662122,7.31,114.6,2.719,0.602,1.064,98.36121,-4.875,-3.546,91.9,0,109.3,13.73,-4.14,76.6
"2010-02-08 00:42:00",1662123,7.216,114.1,3.352,0.801,1.211,98.36316,-4.87,-3.534,91.9,0,109.3,13.73,-4.13,76.1
"2010-02-08 00:42:30",1662124,7.306,114.1,2.563,0.707,1.159,98.36372,-4.868,-3.548,91.9,0,109.3,13.73,-4.13,76.1
"2010-02-08 00:43:00",1662125,7.265,114.5,2.344,0.726,1.187,98.36372,-4.868,-3.544,91.8,0,109.3,13.73,-4.13,76.5
"2010-02-08 00:43:30",1662126,7.306,114,2.705,0.708,1.154,98.3626,-4.871,-3.539,91.8,0,109.3,13.73,-4.14,76.0
"2010-02-08 00:44:00",1662127,7.284,114.2,2.506,0.787,1.144,98.36177,-4.873,-3.519,91.8,0,109.3,13.73,-4.14,76.2
"2010-02-08 00:44:30",1662128,7.344,114.6,3.284,0.715,1.112,98.36316,-4.87,-3.534,91.8,0,109.3,13.73,-4.13,76.6
"2010-02-08 00:45:00",1662129,7.284,115.7,2.33,0.716,1.222,98.36343,-4.869,-3.537,91.8,0,109.3,13.73,-4.13,77.7
"2010-02-08 00:45:30",1662130,7.326,116.4,2.377,0.604,1.053,98.36343,-4.869,-3.548,91.7,0,109.3,13.73,-4.13,78.4
"2010-02-08 00:46:00",1662131,7.25,116.6,2.68,0.713,1.021,98.364,-4.868,-3.538,91.7,0,109.3,13.73,-4.13,78.6
"2010-02-08 00:46:30",1662132,7.271,116.1,2.697,0.709,1.001,98.36316,-4.87,-3.544,91.7,0,109.3,13.73,-4.13,78.1
"2010-02-08 00:47:00",1662133,7.139,116.2,1.653,0.804,1.142,98.36372,-4.868,-3.54,91.7,0,109.3,13.73,-4.13,78.2
"2010-02-08 00:47:30",1662134,7.254,115.6,3.374,0.62,1.044,98.36343,-4.869,-3.522,91.7,0,109.3,13.73,-4.13,77.6
"2010-02-08 00:48:00",1662135,7.208,116.5,3.32,0.635,0.955,98.36568,-4.863,-3.514,91.7,0,109.3,13.73,-4.13,78.5
"2010-02-08 00:48:30",1662136,7.238,116.9,3.128,0.636,0.963,98.36372,-4.868,-3.539,91.7,0,109.3,13.73,-4.13,78.9
"2010-02-08 00:49:00",1662137,7.018,117.9,2.068,0.812,0.932,98.36456,-4.866,-3.54,91.7,0,109.3,13.73,-4.13,79.9
"2010-02-08 00:49:30",1662138,7.12,116.7,4.735,0.52,1.029,98.36484,-4.866,-3.539,91.7,0,109.3,13.73,-4.13,78.7
"2010-02-08 00:50:00",1662139,7.178,117.3,2.973,0.639,0.955,98.36623,-4.862,-3.519,91.6,0,109.3,13.73,-4.13,79.3
"2010-02-08 00:50:30",1662140,7.444,116.5,3.517,0.501,1.343,98.36539,-4.864,-3.538,91.6,0,109.3,13.73,-4.13,78.5
"2010-02-08 00:51:00",1662141,7.39,117.1,3.185,0.721,0.983,98.36511,-4.865,-3.541,91.6,0,109.3,13.73,-4.13,79.1
"2010-02-08 00:51:30",1662142,7.543,116.6,3.852,0.602,1.257,98.36456,-4.866,-3.542,91.6,0,109.3,13.73,-4.13,78.6
"2010-02-08 00:52:00",1662143,7.556,117,3.164,0.544,1.293,98.3626,-4.871,-3.528,91.6,0,109.3,13.73,-4.14,79.0
"2010-02-08 00:52:30",1662144,7.54,117,3.281,0.601,1.24,98.364,-4.868,-3.524,91.6,0,109.3,13.73,-4.13,79.0
"2010-02-08 00:53:00",1662145,7.499,117.4,3.754,0.627,1.409,98.36511,-4.865,-3.548,91.6,0,109.3,13.73,-4.13,79.4
"2010-02-08 00:53:30",1662146,7.485,116.6,3.684,0.6,1.304,98.36456,-4.866,-3.521,91.6,0,109.3,13.73,-4.13,78.6
"2010-02-08 00:54:00",1662147,7.379,117,3.329,0.712,1.306,98.364,-4.868,-3.525,91.6,0,109.3,13.72,-4.13,79.0
"2010-02-08 00:54:30",1662148,7.364,116.6,3.733,0.631,1.269,98.36539,-4.864,-3.516,91.6,0,109.3,13.72,-4.13,78.6
"2010-02-08 00:55:00",1662149,7.274,116.9,2.722,0.714,1.217,98.36568,-4.863,-3.55,91.6,0,109.3,13.73,-4.13,78.9
"2010-02-08 00:55:30",1662150,7.264,117.8,1.694,0.699,1.024,98.36623,-4.862,-3.54,91.6,0,109.3,13.72,-4.13,79.8
"2010-02-08 00:56:00",1662151,7.283,117.4,3.232,0.607,1.064,98.3665,-4.861,-3.535,91.6,0,109.3,13.73,-4.13,79.4
"2010-02-08 00:56:30",1662152,7.163,117.4,2.646,0.782,1.076,98.36595,-4.863,-3.538,91.6,0,109.3,13.73,-4.13,79.4
"2010-02-08 00:57:00",1662153,7.1,117,2.518,0.8,1.23,98.36623,-4.862,-3.534,91.6,0,109.3,13.73,-4.13,79.0
"2010-02-08 00:57:30",1662154,7.155,117.7,2.576,0.613,1.002,98.36679,-4.861,-3.544,91.6,0,109.3,13.73,-4.13,79.7
"2010-02-08 00:58:00",1662155,7.142,116.8,2.91,0.72,0.95,98.3665,-4.861,-3.523,91.6,0,109.3,13.73,-4.13,78.8
"2010-02-08 00:58:30",1662156,7.139,117.5,2.61,0.713,0.925,98.3665,-4.861,-3.535,91.6,0,109.3,13.73,-4.13,79.5
"2010-02-08 00:59:00",1662157,7.125,117.4,2.683,0.722,1.067,98.3665,-4.861,-3.544,91.6,0,109.3,13.73,-4.13,79.4
"2010-02-08 00:59:30",1662158,7.226,117,2.652,0.607,1.004,98.36679,-4.861,-3.528,91.6,0,109.3,13.73,-4.13,79.0
"2010-02-08 01:00:00",1662159,7.146,116.7,3.21,0.632,1.009,98.36679,-4.861,-3.531,91.6,0,109.3,13.73,-4.13,78.7
"2010-02-08 01:00:30",1662160,7.032,118.3,2.763,0.721,0.925,98.36679,-4.861,-3.523,91.6,0,109.3,13.73,-4.13,80.3
"2010-02-08 01:01:00",1662161,7.102,118.2,3.146,0.631,1.111,98.3665,-4.861,-3.527,91.6,0,109.3,13.73,-4.13,80.2
"2010-02-08 01:01:30",1662162,7.156,118.8,2.906,0.617,0.884,98.36595,-4.863,-3.538,91.6,0,109.3,13.73,-4.13,80.8
"2010-02-08 01:02:00",1662163,7.165,120.1,3.544,0.633,0.956,98.36568,-4.863,-3.527,91.6,0,109.3,13.73,-4.13,82.1
"2010-02-08 01:02:30",1662164,7.21,119.4,3.852,0.535,1.006,98.36595,-4.863,-3.523,91.6,0,109.3,13.73,-4.13,81.4
"2010-02-08 01:03:00",1662165,7.104,119.5,2.583,0.701,1.102,98.36539,-4.864,-3.549,91.6,0,109.3,13.73,-4.13,81.5
"2010-02-08 01:03:30",1662166,7.293,118.6,3.67,0.355,1.077,98.3665,-4.861,-3.529,91.6,0,109.3,13.73,-4.13,80.6
"2010-02-08 01:04:00",1662167,7.21,118.5,2.794,0.615,0.913,98.3665,-4.861,-3.529,91.7,0,109.3,13.73,-4.13,80.5
"2010-02-08 01:04:30",1662168,7.157,117.7,3.31,0.666,0.998,98.36679,-4.861,-3.552,91.7,0,109.3,13.73,-4.13,79.7
"2010-02-08 01:05:00",1662169,7.048,118.8,2.742,0.799,1.084,98.3665,-4.861,-3.538,91.7,0,109.3,13.73,-4.13,80.8
"2010-02-08 01:05:30",1662170,7.215,118.6,3.217,0.606,0.921,98.36679,-4.861,-3.554,91.7,0,109.3,13.73,-4.13,80.6
"2010-02-08 01:06:00",1662171,7.191,118.3,2.784,0.716,0.955,98.36623,-4.862,-3.524,91.7,0,109.3,13.73,-4.13,80.3
"2010-02-08 01:06:30",1662172,7.256,117.9,2.762,0.717,0.945,98.36623,-4.862,-3.526,91.7,0,109.3,13.73,-4.13,79.9
"2010-02-08 01:07:00",1662173,7.245,117.5,2.829,0.715,1.098,98.3665,-4.861,-3.525,91.7,0,109.3,13.73,-4.13,79.5
"2010-02-08 01:07:30",1662174,7.279,118.2,1.947,0.704,0.942,98.36679,-4.861,-3.536,91.7,0,109.3,13.73,-4.13,80.2
"2010-02-08 01:08:00",1662175,7.287,116.4,2.846,0.71,1.052,98.36623,-4.862,-3.542,91.7,0,109.3,13.73,-4.13,78.4
"2010-02-08 01:08:30",1662176,7.384,114.6,3.743,0.531,1.251,98.36623,-4.862,-3.536,91.7,0,109.3,13.73,-4.13,76.6
"2010-02-08 01:09:00",1662177,7.302,115.1,2.77,0.739,1.215,98.3665,-4.861,-3.544,91.7,0,109.3,13.72,-4.13,77.1
"2010-02-08 01:09:30",1662178,7.381,114.9,2.843,0.59,1.158,98.36679,-4.861,-3.545,91.7,0,109.2,13.73,-4.13,76.9
"2010-02-08 01:10:00",1662179,7.325,114.3,2.7,0.712,1.129,98.36594,-4.863,-3.539,91.7,0,109.3,13.73,-4.13,76.3
"2010-02-08 01:10:30",1662180,7.226,115.6,2.809,0.725,1.081,98.36537,-4.864,-3.553,91.7,0,109.3,13.73,-4.13,77.6
"2010-02-08 01:11:00",1662181,7.273,113.8,3.441,0.637,1.366,98.36366,-4.869,-3.561,91.6,0,109.3,13.73,-4.13,75.8
"2010-02-08 01:11:30",1662182,7.293,115.1,3.341,0.498,1.168,98.35517,-4.89,-3.555,91.6,0,109.3,13.73,-4.16,77.1
"2010-02-08 01:12:00",1662183,7.216,116,3.167,0.634,1.127,98.35091,-4.901,-3.549,91.6,0,109.3,13.73,-4.17,78.0
"2010-02-08 01:12:30",1662184,7.233,115.7,2.959,0.729,0.991,98.34977,-4.904,-3.568,91.5,0,109.3,13.73,-4.17,77.7
"2010-02-08 01:13:00",1662185,7.258,115.5,2.766,0.785,1.207,98.34694,-4.911,-3.565,91.5,0,109.3,13.73,-4.18,77.5
"2010-02-08 01:13:30",1662186,7.324,114.1,2.811,0.704,1.174,98.34354,-4.92,-3.571,91.5,0,109.3,13.73,-4.19,76.1
"2010-02-08 01:14:00",1662187,7.295,113.2,2.92,0.805,1.21,98.34297,-4.921,-3.548,91.4,0,109.3,13.73,-4.19,75.2
"2010-02-08 01:14:30",1662188,7.307,113.5,3.106,0.708,1.206,98.34213,-4.923,-3.577,91.4,0,109.3,13.73,-4.19,75.5
"2010-02-08 01:15:00",1662189,7.324,112.6,2.747,0.632,1.403,98.34184,-4.924,-3.573,91.3,0,109.3,13.73,-4.19,74.6
"2010-02-08 01:15:30",1662190,7.339,113.7,1.777,0.614,1.171,98.34155,-4.925,-3.583,91.3,0,109.3,13.73,-4.19,75.7
"2010-02-08 01:16:00",1662191,7.366,113,3.764,0.531,1.304,98.34042,-4.928,-3.582,91.2,0,109.3,13.73,-4.19,75.0
"2010-02-08 01:16:30",1662192,7.41,111.6,3.714,0.506,1.413,98.34127,-4.926,-3.591,91.2,0,109.3,13.73,-4.19,73.6
"2010-02-08 01:17:00",1662193,7.395,112.2,3.183,0.599,1.481,98.34127,-4.926,-3.577,91.1,0,109.3,13.73,-4.19,74.2
"2010-02-08 01:17:30",1662194,7.471,111.7,2.343,0.605,1.3,98.34184,-4.924,-3.601,91.1,0,109.3,13.73,-4.19,73.7
"2010-02-08 01:18:00",1662195,7.337,110.8,2.862,0.642,1.339,98.34184,-4.924,-3.583,91.1,0,109.3,13.73,-4.19,72.8
"2010-02-08 01:18:30",1662196,7.269,110.4,2.916,0.629,1.431,98.3407,-4.927,-3.594,91,0,109.3,13.73,-4.19,72.4
"2010-02-08 01:19:00",1662197,7.213,109.9,3.212,0.637,1.57,98.34098,-4.926,-3.601,90.9,0,109.3,13.73,-4.19,71.9
"2010-02-08 01:19:30",1662198,7.364,109.5,3.185,0.495,1.404,98.34127,-4.926,-3.599,90.9,0,109.3,13.73,-4.19,71.5
"2010-02-08 01:20:00",1662199,7.299,109.1,3.343,0.603,1.479,98.34325,-4.921,-3.592,90.9,0,109.3,13.73,-4.19,71.1
"2010-02-08 01:20:30",1662200,7.092,111,2.692,0.72,1.225,98.3441,-4.918,-3.606,90.8,0,109.3,13.73,-4.18,73.0
"2010-02-08 01:21:00",1662201,7.144,110.9,3.203,0.636,1.397,98.34382,-4.919,-3.598,90.7,0,109.3,13.73,-4.18,72.9
"2010-02-08 01:21:30",1662202,7.163,111.1,2.602,0.602,1.16,98.34666,-4.912,-3.59,90.7,0,109.3,13.73,-4.18,73.1
"2010-02-08 01:22:00",1662203,7.174,111.3,3.144,0.636,1.24,98.34864,-4.907,-3.582,90.7,0,109.3,13.73,-4.17,73.3
"2010-02-08 01:22:30",1662204,7.37,111.5,3.311,0.5,1.257,98.35091,-4.901,-3.606,90.6,0,109.3,13.73,-4.17,73.5
"2010-02-08 01:23:00",1662205,7.304,111.1,2.675,0.714,1.428,98.3512,-4.9,-3.585,90.5,0,109.3,13.73,-4.17,73.1
"2010-02-08 01:23:30",1662206,7.285,111.4,2.081,0.698,1.305,98.35459,-4.892,-3.577,90.5,0,109.3,13.73,-4.16,73.4
"2010-02-08 01:24:00",1662207,7.262,111.7,3.315,0.643,1.328,98.35885,-4.881,-3.579,90.5,0,109.3,13.73,-4.15,73.7
"2010-02-08 01:24:30",1662208,7.226,111,3.165,0.632,1.365,98.36226,-4.872,-3.582,90.4,0,109.3,13.73,-4.14,73.0
"2010-02-08 01:25:00",1662209,7.268,111,3.212,0.637,1.548,98.36311,-4.87,-3.577,90.4,0,109.3,13.73,-4.14,73.0
"2010-02-08 01:25:30",1662210,7.283,110,3.157,0.515,1.4,98.36423,-4.867,-3.564,90.3,0,109.3,13.73,-4.13,72.0
"2010-02-08 01:26:00",1662211,7.176,109.6,3.333,0.635,1.369,98.36565,-4.863,-3.561,90.3,0,109.3,13.73,-4.13,71.6
"2010-02-08 01:26:30",1662212,7.18,109.4,3.611,0.542,1.431,98.36594,-4.863,-3.562,90.3,0,109.3,13.73,-4.13,71.4
"2010-02-08 01:27:00",1662213,7.25,109.9,3.549,0.541,1.589,98.36594,-4.863,-3.575,90.2,0,109.3,13.73,-4.13,71.9
"2010-02-08 01:27:30",1662214,7.274,110.6,3.112,0.496,1.455,98.3665,-4.861,-3.555,90.2,0,109.3,13.73,-4.13,72.6
"2010-02-08 01:28:00",1662215,7.187,109.7,3.168,0.615,1.353,98.36679,-4.861,-3.566,90.2,0,109.3,13.73,-4.13,71.7
"2010-02-08 01:28:30",1662216,7.105,109.7,3.749,0.537,1.402,98.3665,-4.861,-3.56,90.1,0,109.3,13.73,-4.13,71.7
"2010-02-08 01:29:00",1662217,7.045,109.7,2.821,0.742,1.371,98.3665,-4.861,-3.565,90.1,0,109.3,13.73,-4.13,71.7
"2010-02-08 01:29:30",1662218,7.143,109.9,2.6,0.623,1.202,98.36679,-4.861,-3.552,90.1,0,109.2,13.73,-4.13,71.9
"2010-02-08 01:30:00",1662219,6.959,110.1,2.825,0.731,1.132,98.36679,-4.861,-3.542,90,0,109.3,13.73,-4.13,72.1
"2010-02-08 01:30:30",1662220,7.015,109.8,3.274,0.626,1.242,98.36679,-4.861,-3.541,90,0,109.3,13.73,-4.13,71.8
"2010-02-08 01:31:00",1662221,6.957,110.4,3.188,0.628,1.185,98.36679,-4.861,-3.54,90,0,109.3,13.73,-4.13,72.4
"2010-02-08 01:31:30",1662222,7.019,111.7,3.232,0.497,1.017,98.36679,-4.861,-3.548,89.9,0,109.3,13.73,-4.13,73.7
"2010-02-08 01:32:00",1662223,7.021,112.4,4.121,0.29,1.368,98.36679,-4.861,-3.539,89.9,0,109.3,13.73,-4.13,74.4
"2010-02-08 01:32:30",1662224,6.73,113.5,2.742,0.803,0.894,98.36679,-4.861,-3.527,89.9,0,109.3,13.73,-4.13,75.5
"2010-02-08 01:33:00",1662225,6.905,111.9,3.909,0.613,1.262,98.36679,-4.861,-3.527,89.9,0,109.3,13.73,-4.13,73.9
"2010-02-08 01:33:30",1662226,6.888,110.9,3.212,0.631,1.067,98.36679,-4.861,-3.522,89.9,0,109.3,13.73,-4.13,72.9
"2010-02-08 01:34:00",1662227,6.851,111.8,3.053,0.631,1.107,98.36679,-4.861,-3.53,89.9,0,109.3,13.73,-4.13,73.8
"2010-02-08 01:34:30",1662228,6.852,112.3,3.213,0.594,1.052,98.36679,-4.861,-3.525,89.9,0,109.3,13.73,-4.13,74.3
"2010-02-08 01:35:00",1662229,6.765,111.7,3.723,0.625,1.123,98.3665,-4.861,-3.527,89.9,0,109.3,13.73,-4.13,73.7
"2010-02-08 01:35:30",1662230,6.713,113.2,3.114,0.625,0.893,98.36679,-4.861,-3.514,89.9,0,109.3,13.73,-4.13,75.2
"2010-02-08 01:36:00",1662231,6.663,114.7,3.581,0.72,0.843,98.36679,-4.861,-3.497,89.9,0,109.3,13.73,-4.13,76.7
"2010-02-08 01:36:30",1662232,6.727,116.5,3.947,0.629,0.83,98.36679,-4.861,-3.523,89.8,0,109.3,13.73,-4.13,78.5
"2010-02-08 01:37:00",1662233,6.639,116.9,3.351,0.602,0.905,98.36679,-4.861,-3.515,89.8,0,109.3,13.73,-4.13,78.9
"2010-02-08 01:37:30",1662234,6.674,118.3,2.968,0.524,0.496,98.36679,-4.861,-3.52,89.8,0,109.3,13.73,-4.13,80.3
"2010-02-08 01:38:00",1662235,6.655,116,3.458,0.697,0.749,98.36679,-4.861,-3.506,89.9,0,109.3,13.73,-4.13,78.0
"2010-02-08 01:38:30",1662236,6.296,114.4,4.747,0.932,-0.061,98.36679,-4.861,-3.551,89.9,0,109.3,13.73,-4.13,76.4
"2010-02-08 01:39:00",1662237,5.926,116,4.93,1.093,-0.085,98.36679,-4.861,-3.581,89.8,0,109.3,13.73,-4.13,78.0
"2010-02-08 01:39:30",1662238,5.87,113.8,5.687,1.01,-0.051,98.36679,-4.861,-3.59,89.8,0,109.3,13.74,-4.13,75.8
"2010-02-08 01:40:00",1662239,6.106,114.9,5.408,1.011,0.351,98.36679,-4.861,-3.561,89.9,0,109.3,13.74,-4.13,76.9
"2010-02-08 01:40:30",1662240,6.149,115.8,5.625,0.949,0.553,98.36679,-4.861,-3.569,89.9,0,109.3,13.73,-4.13,77.8
"2010-02-08 01:41:00",1662241,6.512,117.8,2.516,0.636,1.467,98.36679,-4.861,-3.504,90,0,109.3,13.73,-4.13,79.8
"2010-02-08 01:41:30",1662242,6.446,117.2,3.365,0.618,1.565,98.36679,-4.861,-3.513,90,0,109.3,13.73,-4.13,79.2
"2010-02-08 01:42:00",1662243,6.422,118.1,3.802,0.626,1.398,98.36679,-4.861,-3.507,90,0,109.3,13.73,-4.13,80.1
"2010-02-08 01:42:30",1662244,6.427,117.7,3.052,0.635,1.43,98.36679,-4.861,-3.496,90.1,0,109.3,13.73,-4.13,79.7
"2010-02-08 01:43:00",1662245,6.353,116.4,3.354,0.616,1.047,98.36679,-4.861,-3.521,90.1,0,109.3,13.73,-4.13,78.4
"2010-02-08 01:43:30",1662246,6.348,115.5,3.573,0.641,1.021,98.36679,-4.861,-3.493,90.1,0,109.3,13.73,-4.13,77.5
"2010-02-08 01:44:00",1662247,6.278,114.2,3.389,0.723,0.75,98.36679,-4.861,-3.5,90.1,0,109.3,13.73,-4.13,76.2
"2010-02-08 01:44:30",1662248,6.37,114.2,3.184,0.601,0.75,98.36679,-4.861,-3.506,90.1,0,109.3,13.73,-4.13,76.2
"2010-02-08 01:45:00",1662249,6.392,115,3.894,0.569,0.829,98.36679,-4.861,-3.514,90.1,0,109.3,13.73,-4.13,77.0
"2010-02-08 01:45:30",1662250,6.005,115.3,4.681,0.939,0.161,98.36679,-4.861,-3.587,90.1,0,109.3,13.73,-4.13,77.3
"2010-02-08 01:46:00",1662251,5.372,111.4,6.33,1.091,-1.165,98.3665,-4.861,-3.566,90.1,0,109.3,13.74,-4.13,73.4
"2010-02-08 01:46:30",1662252,5.961,114.9,4.962,1.013,0.186,98.36565,-4.863,-3.653,90,0,109.3,13.74,-4.13,76.9